Location: Czekanka
(50.4925°N, 19.2643°E)
Time: 07:51:08
(UTC+00:00)

SL-16 R/B - Pass Details

Date: 26 September 2024
Orbit: 842 x 846 km, 71.0° (Epoch: 05 October)

Event Time Altitude Azimuth Distance (km) Brightness Sun altitude
Rises 02:26:07 0° 329° (NNW) 3,412 5.3 -20.9°
Reaches altitude 10° 02:28:35 10° 327° (NNW) 2,472 4.5 -20.5°
Maximum altitude 02:34:14 72° 245° (WSW) 890 2.1 -19.7°
Drops below altitude 10° 02:39:50 10° 162° (SSE) 2,455 4.6 -18.9°
Sets 02:42:16 0° 160° (SSE) 3,386 5.3 -18.5°
